Regional Weather Roundup
Issued by NWS

Home | Current Version | Previous Version | Text Only | Print | Product List | Glossary On
Versions: 1 2 3 4 5 6 7 8 9 10 11 12 13 14 15 16 17 18 19 20 21 22 23 24 25 26 27 28 29 30 31 32 33 34 35 36 37 38 39 40 41 42 43 44 45 46 47 48 49 50
767
ASUS43 KTOP 241108
RWRKS

WEATHER ROUNDUP FOR KANSAS
NATIONAL WEATHER SERVICE GOODLAND KS
500 AM CST FRI FEB 24 2017

NOTE:  "FAIR" INDICATES FEW OR NO CLOUDS BELOW 12,000 FEET WITH NO
SIGNIFICANT WEATHER AND/OR OBSTRUCTIONS TO VISIBILITY.

KSZ001>006-013>018-027>032-041>047-241200-
NORTHWEST KANSAS

CITY           SKY/WX    TMP DP  RH WIND       PRES   REMARKS
GOODLAND       CLOUDY    20  18  92 NW16      29.81R WCI   6
HAYS           CLOUDY    29  24  82 N17G26    29.79R WCI  17
HILL CITY      CLOUDY    27  24  89 N18G25    29.81R WCI  14
RUSSELL        CLOUDY    30  25  81 NW21      29.75R WCI  17
$$

KSZ061>065-074>080-084>089-241200-
SOUTHWEST KANSAS

CITY           SKY/WX    TMP DP  RH WIND       PRES   REMARKS
DODGE CITY     PTCLDY    25  20  81 NW17      29.79R WCI  12
ELKHART          N/A     24   7  48 NW14        N/A  WCI  12
GARDEN CITY    CLOUDY    28  17  63 NW20      29.82R WCI  15
GREAT BEND     CLOUDY    31  25  78 NW18      29.76R WCI  19
LIBERAL        CLOUDY    28  16  59 N20G25    29.84R WCI  15
PRATT          PTCLDY    28  21  76 NW15      29.76R WCI  16
$$

KSZ066>073-081>083-090>101-241200-
SOUTHEAST KANSAS

CITY           SKY/WX    TMP DP  RH WIND       PRES   REMARKS
CHANUTE        CLOUDY    41  35  79 NW21G26   29.63R
COFFEYVILLE    PTCLDY    42  37  82 NW17      29.64R
HUTCHINSON     MOCLDY    34  26  72 NW18G31   29.73R WCI  23
MEDICINE LODGE   N/A     32  22  66 NW12      29.76R WCI  23
NEWTON         CLOUDY    34  28  79 NW17      29.71R WCI  23
PARSONS        MOCLDY    41  35  79 NW15G29   29.64R
WICHITA INTL   CLOUDY    36  27  69 NW25G35   29.72R WCI  24
WICHITA JABRA  CLOUDY    35  29  78 NW21G28   29.70R WCI  24
WICHITA MCCONL MOCLDY    36  27  69 NW18G29   29.71R WCI  25
WINFIELD       CLOUDY    38  30  73 NW22      29.73R WCI  27
$$

KSZ007>012-019>026-033>040-048>060-102>105-241200-
NORTHEAST KANSAS

CITY           SKY/WX    TMP DP  RH WIND       PRES   REMARKS
CONCORDIA      CLOUDY    31  29  92 NW20G30   29.70R WCI  19
EMPORIA        CLOUDY    35  32  88 W20G30    29.65R WCI  24
LAWRENCE       CLOUDY    39  36  89 W14       29.60R WCI  31
MANHATTAN      CLOUDY    35  31  85 NW8       29.67R
MARYSVILLE     LGT RAIN  32  32 100 NW12      29.63S WCI  23
OLATHE IND     CLOUDY    38  35  89 NW18      29.58R WCI  28
OLATHE EXE     CLOUDY    38  37  97 NW10G20   29.56R WCI  31
SALINA         CLOUDY    36  28  73 NW22      29.71R WCI  25
TOPEKA BILLARD CLOUDY    38  35  89 W14G21    29.61R WCI  30
TOPEKA FORBES  CLOUDY    38  33  82 NW17G26   29.61R WCI  28
$$




USA.gov is the U.S. government's official web portal to all federal, state and local government web resources and services.